Tuscaloosa, AL

3:37 PM CST on November 23, 2017 (GMT -0600)
Tuscaloosa Municipal

Weather History for KTCL - April, 2013

Change the Weather History Date:

Tuesday, April 9, 2013

  Actual Average Record
Temperature  
Mean Temperature 75 °F 61 °F  
Max Temperature 85 °F 75 °F 89 °F (1965)
Min Temperature 64 °F 48 °F 35 °F (1957)
Degree Days  
Heating Degree Days 0 5  
Month to date heating degree days 50 53  
Since 1 July heating degree days 2316 2437  
Cooling Degree Days 9    
Growing Degree Days 24 (Base 50)    
Moisture  
Dew Point 61 °F    
Average Humidity 67    
Maximum Humidity 87    
Minimum Humidity 47    
Precipitation  
Precipitation 0.00 in 0.15 in 0.87 in (1975)
Month to date precipitation 0.47 1.29  
Year to date precipitation 15.99 16.50  
Sea Level Pressure  
Sea Level Pressure 30.04 in    
Wind  
Wind Speed 9 mph (South)    
Max Wind Speed 18 mph    
Max Gust Speed 24 mph    
Visibility 10 miles    
Events      
T = Trace of Precipitation, MM = Missing Value Source: NWS Daily Summary

Daily Weather History Graph

Daily Weather History Graph

Search for Another Location

Airport or City:

Trip Planner

Search our weather history database for the weather conditions in past years. The results will help you decide how hot, cold, wet, or windy it might be!

Date:

Astronomy

Apr. 09, 2013 Rise Set
Actual Time 6:27 AM CDT 7:16 PM CDT
Civil Twilight 6:02 AM CDT 7:42 PM CDT
Nautical Twilight 5:32 AM CDT 8:11 PM CDT
Astronomical Twilight 5:02 AM CDT 8:42 PM CDT
Moon 5:48 AM CDT (4/9) 6:51 PM CDT (4/9)
Length of Visible Light 13h 39m
Length of Day
12h 49m
Waning Crescent, 1% of the Moon is Illuminated
Apr 9
Waning Crescent
Apr 10
New
Apr 18
First Quarter
Apr 25
Full
May 2
Last Quarter

Hourly Weather History & Observations

Time (CDT) Temp. Heat Index Dew Point Humidity Pressure Visibility Wind Dir Wind Speed Gust Speed Precip Events Conditions
12:53 AM 70.0 °F - 57.9 °F 65% 30.01 in 10.0 mi South 11.5 mph - N/A   Clear
1:53 AM 69.1 °F - 59.0 °F 70% 29.99 in 10.0 mi SSE 9.2 mph - N/A   Clear
2:53 AM 66.9 °F - 59.0 °F 76% 29.99 in 10.0 mi South 9.2 mph - N/A   Clear
3:53 AM 64.9 °F - 59.0 °F 81% 30.01 in 10.0 mi South 4.6 mph - N/A   Clear
4:31 AM 64.4 °F - 60.8 °F 88% 30.03 in 9.0 mi SSW 4.6 mph - N/A   Mostly Cloudy
4:53 AM 64.9 °F - 60.1 °F 84% 30.02 in 10.0 mi South 6.9 mph - N/A   Overcast
5:01 AM 64.4 °F - 60.8 °F 88% 30.03 in 10.0 mi South 8.1 mph - N/A   Overcast
5:49 AM 66.2 °F - 60.8 °F 83% 30.05 in 10.0 mi SSE 3.5 mph - N/A   Overcast
5:53 AM 64.9 °F - 61.0 °F 87% 30.04 in 10.0 mi SSE 4.6 mph - N/A   Overcast
6:53 AM 64.9 °F - 61.0 °F 87% 30.05 in 9.0 mi East 4.6 mph - N/A   Overcast
7:31 AM 66.2 °F - 60.8 °F 83% 30.07 in 9.0 mi East 4.6 mph - N/A   Scattered Clouds
7:53 AM 66.9 °F - 61.0 °F 81% 30.07 in 9.0 mi Variable 3.5 mph - N/A   Clear
8:53 AM 70.0 °F - 62.1 °F 76% 30.09 in 9.0 mi SSE 4.6 mph - N/A   Scattered Clouds
9:53 AM 73.0 °F - 64.0 °F 73% 30.12 in 10.0 mi South 4.6 mph - N/A   Scattered Clouds
10:53 AM 75.0 °F - 62.1 °F 64% 30.12 in 10.0 mi South 6.9 mph - N/A   Clear
11:53 AM 81.0 °F 81.7 °F 61.0 °F 50% 30.09 in 10.0 mi South 12.7 mph 19.6 mph N/A   Clear
12:53 PM 82.9 °F 83.3 °F 61.0 °F 47% 30.07 in 10.0 mi SSE 15.0 mph 24.2 mph N/A   Clear
1:53 PM 84.0 °F 84.5 °F 62.1 °F 47% 30.06 in 10.0 mi South 12.7 mph 18.4 mph N/A   Clear
2:53 PM 82.0 °F 83.0 °F 62.1 °F 51% 30.03 in 10.0 mi South 11.5 mph - N/A   Clear
3:53 PM 82.9 °F 83.7 °F 62.1 °F 49% 30.03 in 10.0 mi South 8.1 mph - N/A   Overcast
4:53 PM 84.9 °F 85.4 °F 62.1 °F 46% 30.01 in 10.0 mi South 15.0 mph 18.4 mph N/A   Mostly Cloudy
5:53 PM 82.9 °F 83.3 °F 61.0 °F 47% 30.01 in 10.0 mi South 12.7 mph 18.4 mph N/A   Partly Cloudy
6:53 PM 82.0 °F 82.4 °F 60.1 °F 47% 30.01 in 10.0 mi South 12.7 mph - N/A   Clear
7:53 PM 78.1 °F - 61.0 °F 56% 30.02 in 10.0 mi South 6.9 mph - N/A   Partly Cloudy
8:53 PM 75.0 °F - 61.0 °F 62% 30.04 in 10.0 mi South 5.8 mph - N/A   Clear
9:53 PM 75.0 °F - 61.0 °F 62% 30.04 in 10.0 mi South 8.1 mph - N/A   Clear
10:53 PM 73.0 °F - 61.0 °F 66% 30.05 in 10.0 mi South 8.1 mph - N/A   Clear
11:53 PM 72.0 °F - 60.1 °F 66% 30.03 in 10.0 mi South 9.2 mph - N/A   Clear